Visibility
15.0 15.0 15.0 15.0 15.0 15.0 15.0 15.0 15.0 15.0 15.0 15.0 7.7 15.0 15.0 15.0 15.0 15.0 15.0 15.0 15.0 5.2 15.0 15.0 7.9 3.9 7.4 15.0 15.0 15.0 15.0 15.0
15.0 15.0 15.0 15.0 15.0 15.0 15.0 15.0 15.0 15.0 15.0 15.0 15.0 15.0 15.0 15.0 15.0 15.0 15.0 2.6 15.0 15.0 15.0 15.0 1.9 4.5 9.4 10.6 13.6 15.0 15.0 15.0
15.0 15.0 15.0 15.0 15.0 15.0 15.0 15.0 15.0 15.0 15.0 15.0 15.0 15.0 15.0 15.0 15.0 14.3 15.0 15.0 9.3 15.0 15.0 8.7 15.0 12.1 12.1 13.8 14.2 15.0 15.0 15.0
15.0 15.0 15.0 15.0 15.0 15.0 15.0 15.0 15.0 15.0 15.0 15.0 15.0 15.0 15.0 15.0 15.0 15.0 15.0 15.0 10.5 9.1 15.0 15.0 15.0 8.9 4.4 4.2 4.0 15.0 15.0 15.0
15.0 15.0 15.0 15.0 15.0 15.0 15.0 15.0 15.0 15.0 15.0 15.0 15.0 15.0 15.0 15.0 15.0 15.0 15.0 8.4 15.0 15.0 15.0 13.9 15.0 14.8 9.2 5.8 5.6 13.9 15.0 15.0
15.0 15.0 15.0 15.0 15.0 15.0 15.0 15.0 15.0 15.0 15.0 15.0 15.0 15.0 15.0 15.0 15.0 4.9 15.0 15.0 15.0 15.0 15.0 15.0 6.1 15.0 15.0 4.1 15.0 15.0 14.4 15.0
15.0 15.0 15.0 15.0 15.0 15.0 15.0 15.0 15.0 15.0 15.0 15.0 15.0 15.0 15.0 15.0 15.0 14.5 14.0 15.0 11.8 15.0 15.0 7.1 15.0 15.0 15.0 15.0 4.8 15.0 10.3 7.0
15.0 15.0 15.0 15.0 15.0 15.0 15.0 15.0 15.0 15.0 15.0 15.0 15.0 15.0 15.0 15.0 15.0 15.0 15.0 15.0 9.4 15.0 15.0 15.0 15.0 15.0 15.0 15.0 15.0 15.0 15.0 15.0
15.0 15.0 15.0 15.0 15.0 15.0 15.0 15.0 15.0 15.0 15.0 15.0 15.0 15.0 15.0 15.0 15.0 15.0 15.0 15.0 15.0 5.7 4.4 14.2 15.0 15.0 15.0 15.0 15.0 3.5 13.6 13.7
15.0 15.0 15.0 15.0 15.0 15.0 15.0 15.0 15.0 15.0 9.3 13.2 14.2 15.0 15.0 11.2 15.0 15.0 13.1 14.0 11.4 13.3 15.0 15.0 7.2 3.8 9.6 8.2 13.5 15.0 3.6 4.3
15.0 15.0 12.9 15.0 15.0 15.0 15.0 15.0 15.0 15.0 15.0 12.8 0.6 2.5 10.7 7.3 13.2 10.0 6.7 12.2 5.4 15.0 0.3 5.5 3.2 3.5 15.0 11.5 4.6 4.7 4.6 7.9
15.0 15.0 15.0 15.0 15.0 15.0 15.0 15.0 15.0 15.0 14.9 8.9 14.3 11.3 2.0 10.1 0.1 0.1 0.1 0.5 2.9 4.8 15.0 10.9 2.8 13.7 8.3 10.4 14.2 7.9 3.5 4.3
11.8 15.0 15.0 15.0 15.0 15.0 15.0 15.0 15.0 15.0 7.5 4.1 4.1 10.8 8.3 7.7 3.7 3.1 3.0 2.6 2.8 2.2 14.8 9.0 2.9 4.6 3.8 8.8 5.3 13.4 5.5 4.6
4.3 3.7 2.1 14.5 15.0 15.0 15.0 15.0 15.0 15.0 15.0 12.6 14.7 15.0 15.0 4.5 6.7 4.1 11.0 2.7 4.3 4.6 6.5 6.8 5.3 6.5 1.0 7.2 2.9 2.2 2.0 2.9
0.1 4.1 4.8 6.2 6.1 8.3 15.0 15.0 15.0 15.0 15.0 15.0 15.0 15.0 15.0 15.0 9.2 14.9 9.1 8.2 13.6 15.0 6.4 3.0 9.6 2.8 7.9 6.4 1.5 12.5 12.4 4.0
0.8 1.3 7.1 14.4 7.2 11.6 8.2 8.9 13.2 15.0 15.0 15.0 15.0 15.0 15.0 15.0 15.0 15.0 14.5 0.1 13.2 15.0 15.0 14.1 9.5 12.7 2.2 10.8 15.0 0.3 4.1 5.3
15.0 15.0 11.6 6.7 12.8 15.0 8.2 6.9 11.7 15.0 15.0 15.0 15.0 15.0 15.0 15.0 15.0 15.0 13.3 15.0 15.0 8.8 13.9 15.0 15.0 15.0 0.0 0.1 0.1 3.4 7.5 0.2
15.0 15.0 15.0 15.0 11.9 7.4 8.7 7.5 14.7 15.0 15.0 15.0 15.0 15.0 15.0 15.0 15.0 15.0 15.0 15.0 15.0 15.0 15.0 15.0 15.0 14.1 0.1 0.1 0.1 0.1 0.1 0.1
15.0 15.0 15.0 15.0 15.0 14.4 15.0 15.0 14.7 12.3 15.0 15.0 15.0 15.0 15.0 15.0 15.0 15.0 15.0 15.0 15.0 15.0 15.0 15.0 8.8 8.5 15.0 14.4 2.9 0.1 0.1 6.0